Date String (YYYY-MM-DD hh:mm:ss) UTC,Instrument flags,absolute air pressure of the measurement (hPa),sample flow rate (lpm),inlet stack bypass flow (lpm),air temperature of the measurement (°C),ambient temperature measured by the external sensor (°C),aerosol sample conditioner tube jacket temperature (°C),OPC LED temperature (°C),internal box temperature (°C),relative humidity of the measurement (%),span deviation,mass concentration of particles derived from Lorenz-Mie calculation of OPC scattering (μg/m³),mass concentration of particles derived from Lorenz-Mie calculation of OPC scattering (μg/m³),mass concentration of particles derived from Lorenz-Mie calculation of OPC scattering (μg/m³)
DateTimeUTC,F1_M11,P_M11,Q1_M11,Q2_M11,T1_M11,T2_M11,T3_M11,T4_M11,T5_M11,U1_M11,ZSPAN_M11,X2_M11,X0_M11,X1_M11
2024-02-23 12:00:00,SystemResetWarning,0832.4,5.00,000.00,018.4,017.9,000.0,026.9,020.2,10.8,0000.0,0000.41,0000.63,0000.31
2024-02-23 12:01:00,SystemResetWarning,0831.8,4.99,000.00,018.4,017.9,000.0,026.9,020.2,10.8,0000.0,0000.40,0000.61,0000.31
2024-02-23 12:02:00,SystemResetWarning,0832.0,4.99,000.00,018.4,017.9,000.0,026.9,020.2,10.8,0000.0,0000.39,0000.58,0000.31
2024-02-23 12:03:00,SystemResetWarning,0831.8,4.99,000.00,018.4,017.9,000.0,026.9,020.2,10.9,0000.0,0000.39,0000.58,0000.31
2024-02-23 12:04:00,SystemResetWarning,0831.8,5.01,000.00,018.4,017.9,000.0,026.9,020.2,10.8,0000.0,0000.39,0000.57,0000.31
2024-02-23 12:05:00,SystemResetWarning,0831.8,5.00,000.00,018.4,017.9,000.0,026.9,020.2,10.8,0000.0,0000.35,0000.49,0000.30
2024-02-23 12:06:00,SystemResetWarning,0831.7,5.01,000.00,018.4,017.9,000.0,026.9,020.1,10.8,0000.0,0000.35,0000.47,0000.30
2024-02-23 12:07:00,SystemResetWarning,0831.8,4.99,000.00,018.4,017.9,000.0,026.9,020.2,10.7,0000.0,0000.35,0000.47,0000.31
2024-02-23 12:08:00,SystemResetWarning,0831.9,4.99,000.00,018.4,017.9,000.0,026.9,020.1,10.7,0000.0,0000.36,0000.49,0000.30
2024-02-23 12:09:00,SystemResetWarning,0831.8,4.99,000.00,018.4,017.9,000.0,026.9,020.1,10.8,0000.0,0000.36,0000.51,0000.30
2024-02-23 12:10:00,SystemResetWarning,0831.9,5.01,000.00,018.4,017.9,000.0,026.9,020.1,10.8,0000.0,0000.36,0000.51,0000.30
2024-02-23 12:11:00,SystemResetWarning,0831.9,5.01,000.00,018.4,017.9,000.0,026.9,020.1,10.8,0000.0,0000.35,0000.49,0000.30
2024-02-23 12:12:00,SystemResetWarning,0831.9,4.99,000.00,018.4,017.9,000.0,026.9,020.2,10.8,0000.0,0000.36,0000.52,0000.31
2024-02-23 12:13:00,SystemResetWarning,0831.9,4.99,000.00,018.4,017.9,000.0,026.9,020.2,10.8,0000.0,0000.37,0000.53,0000.32
2024-02-23 12:14:00,SystemResetWarning,0831.9,5.00,000.00,018.4,017.9,000.0,026.9,020.2,10.8,0000.0,0000.37,0000.53,0000.32
2024-02-23 12:15:00,SystemResetWarning,0831.9,5.00,000.00,018.4,017.9,000.0,026.8,020.1,10.8,0000.0,0000.38,0000.54,0000.32
2024-02-23 12:16:00,SystemResetWarning,0832.0,5.01,000.00,018.4,017.9,000.0,026.8,020.1,10.7,0000.0,0000.38,0000.55,0000.33
2024-02-23 12:17:00,SystemResetWarning,0831.9,5.00,000.00,018.4,017.9,000.0,026.8,020.2,10.7,0000.0,0000.39,0000.57,0000.33
2024-02-23 12:18:00,SystemResetWarning,0832.0,5.00,000.00,018.4,017.9,000.0,026.8,020.1,10.7,0000.0,0000.40,0000.60,0000.33
2024-02-23 12:19:00,SystemResetWarning,0832.0,5.00,000.00,018.4,017.9,000.0,026.8,020.1,10.9,0000.0,0000.39,0000.59,0000.33
2024-02-23 12:20:00,SystemResetWarning,0832.0,5.00,000.00,018.4,017.9,000.0,026.8,020.1,10.8,0000.0,0000.38,0000.57,0000.33
2024-02-23 12:21:00,SystemResetWarning,0831.9,4.99,000.00,018.4,017.9,000.0,026.8,020.1,10.8,0000.0,0000.37,0000.55,0000.34
2024-02-23 12:22:00,SystemResetWarning,0831.9,5.00,000.00,018.4,017.9,000.0,026.8,020.1,10.9,0000.0,0000.38,0000.57,0000.34
2024-02-23 12:23:00,SystemResetWarning,0832.0,5.01,000.00,018.4,017.9,000.0,026.8,020.2,10.9,0000.0,0000.38,0000.57,0000.33
2024-02-23 12:24:00,SystemResetWarning,0832.1,5.02,000.00,018.4,017.9,000.0,026.8,020.1,10.8,0000.0,0000.41,0000.64,0000.33
2024-02-23 12:25:00,SystemResetWarning,0831.8,4.99,000.00,018.4,017.9,000.0,026.8,020.1,10.8,0000.0,0000.43,0000.70,0000.34
2024-02-23 12:26:00,SystemResetWarning,0831.9,5.00,000.00,018.4,017.9,000.0,026.8,020.1,10.8,0000.0,0000.44,0000.71,0000.34
2024-02-23 12:27:00,SystemResetWarning,0831.9,4.99,000.00,018.4,017.9,000.0,026.8,020.1,10.8,0000.0,0000.44,0000.70,0000.35
2024-02-23 12:28:00,SystemResetWarning,0831.9,5.00,000.00,018.4,017.9,000.0,026.8,020.1,10.8,0000.0,0000.44,0000.69,0000.35
2024-02-23 12:29:00,SystemResetWarning,0831.7,5.00,000.00,018.4,017.9,000.0,026.8,020.1,10.7,0000.0,0000.45,0000.68,0000.36
2024-02-23 12:30:00,SystemResetWarning,0831.7,5.01,000.00,018.4,017.9,000.0,026.8,020.1,10.7,0000.0,0000.46,0000.71,0000.36
2024-02-23 12:31:00,SystemResetWarning,0831.8,5.01,000.00,018.4,017.9,000.0,026.8,020.1,10.7,0000.0,0000.48,0000.74,0000.37
2024-02-23 12:32:00,SystemResetWarning,0831.9,5.00,000.00,018.4,017.9,000.0,026.8,020.1,10.7,0000.0,0000.48,0000.74,0000.37
2024-02-23 12:33:00,SystemResetWarning,0831.9,5.00,000.00,018.4,017.9,000.0,026.8,020.1,10.7,0000.0,0000.47,0000.72,0000.37
2024-02-23 12:34:00,SystemResetWarning,0831.8,5.00,000.00,018.4,017.9,000.0,026.8,020.1,10.8,0000.0,0000.47,0000.71,0000.38
2024-02-23 12:35:00,SystemResetWarning,0831.9,5.00,000.00,018.4,017.9,000.0,026.8,020.1,11.0,0000.0,0000.44,0000.63,0000.38
2024-02-23 12:36:00,SystemResetWarning,0831.9,5.00,000.00,018.4,017.9,000.0,026.8,020.1,11.2,0000.0,0000.42,0000.58,0000.37
2024-02-23 12:37:00,SystemResetWarning,0831.9,4.99,000.00,018.4,017.9,000.0,026.8,020.1,11.5,0000.0,0000.42,0000.57,0000.37
2024-02-23 12:38:00,SystemResetWarning,0832.0,5.00,000.00,018.4,017.9,000.0,026.8,020.1,11.4,0000.0,0000.42,0000.57,0000.37
2024-02-23 12:39:00,SystemResetWarning,0832.0,4.99,000.00,018.4,017.9,000.0,026.8,020.1,11.3,0000.0,0000.42,0000.58,0000.37
2024-02-23 12:40:00,SystemResetWarning,0832.0,5.00,000.00,018.4,017.9,000.0,026.8,020.1,11.3,0000.0,0000.41,0000.54,0000.36
2024-02-23 12:41:00,SystemResetWarning,0832.0,5.01,000.00,018.4,017.9,000.0,026.8,020.1,11.1,0000.0,0000.40,0000.54,0000.36
2024-02-23 12:42:00,SystemResetWarning,0832.0,4.99,000.00,018.4,017.9,000.0,026.8,020.1,11.0,0000.0,0000.40,0000.55,0000.36
2024-02-23 12:43:00,SystemResetWarning,0832.0,5.00,000.00,018.4,017.9,000.0,026.8,020.1,11.0,0000.0,0000.40,0000.81,0000.37
2024-02-23 12:44:00,SystemResetWarning,0832.0,5.00,000.00,018.4,017.9,000.0,026.8,020.1,11.0,0000.0,0000.42,0001.24,0000.37
2024-02-23 12:45:00,SystemResetWarning,0832.0,5.01,000.00,018.4,017.9,000.0,026.8,020.1,11.0,0000.0,0000.42,0001.26,0000.37
2024-02-23 12:46:00,SystemResetWarning,0832.0,5.01,000.00,018.4,017.9,000.0,026.8,020.1,10.9,0000.0,0000.43,0001.28,0000.37
2024-02-23 12:47:00,SystemResetWarning,0832.0,4.99,000.00,018.4,017.9,000.0,026.8,020.1,10.9,0000.0,0000.43,0001.28,0000.37
2024-02-23 12:48:00,SystemResetWarning,0832.0,5.00,000.00,018.4,017.9,000.0,026.8,020.1,10.9,0000.0,0000.45,0001.32,0000.38
2024-02-23 12:49:00,SystemResetWarning,0832.0,5.00,000.00,018.4,017.9,000.0,026.8,020.1,10.9,0000.0,0000.46,0001.33,0000.38
2024-02-23 12:50:00,SystemResetWarning,0832.0,5.00,000.00,018.4,017.9,000.0,026.8,020.1,10.9,0000.0,0000.47,0001.34,0000.38
2024-02-23 12:51:00,SystemResetWarning,0832.0,5.00,000.00,018.4,017.9,000.0,026.8,020.1,11.0,0000.0,0000.47,0001.35,0000.38
2024-02-23 12:52:00,SystemResetWarning,0832.0,5.01,000.00,018.4,017.9,000.0,026.8,020.1,10.9,0000.0,0000.47,0001.33,0000.38
2024-02-23 12:53:00,SystemResetWarning,0832.0,5.00,000.00,018.4,017.9,000.0,026.8,020.1,10.9,0000.0,0000.46,0001.30,0000.38
2024-02-23 12:54:00,SystemResetWarning,0832.1,5.00,000.00,018.4,017.9,000.0,026.8,020.1,10.9,0000.0,0000.45,0001.16,0000.38
2024-02-23 12:55:00,SystemResetWarning,0832.0,4.99,000.00,018.4,017.9,000.0,026.8,020.1,10.9,0000.0,0000.45,0000.62,0000.37
2024-02-23 12:56:00,SystemResetWarning,0831.9,4.99,000.00,018.4,017.9,000.0,026.8,020.1,10.9,0000.0,0000.44,0000.61,0000.37
2024-02-23 12:57:00,SystemResetWarning,0831.9,5.00,000.00,018.4,017.9,000.0,026.8,020.1,11.1,0000.0,0000.43,0000.58,0000.37
2024-02-23 12:58:00,SystemResetWarning,0831.9,5.00,000.00,018.4,017.8,000.0,026.8,020.1,11.2,0000.0,0000.43,0000.59,0000.37
2024-02-23 12:59:00,SystemResetWarning,0832.0,5.00,000.00,018.4,017.8,000.0,026.8,020.1,11.1,0000.0,0000.43,0000.56,0000.37
